Flag for Venezuela Weather past 2 weeks in Barquisimeto, Venezuela

Now
79 °F

Passing clouds.


Feels Like: 81 °F
Forecast: 72 / 92 °F
Wind: 5 mph from Southeast

Location: Barquisimeto Airport


UV Index: 10 (Very high)

Visibility: N/A


Pressure: 29.92 "Hg

Humidity: 70%

Dew point: 68 °F

Location of BarquisimetoLocation

Historic Weather in Barquisimeto

°F

Barquisimeto temperature yesterday

Maximum temperature yesterday: 88 °F (at 12:30 PM)
Minimum temperature yesterday: 72 °F (at 4:30 AM)
Average temperature yesterday: 80 °F

Past Weeks' High & Low Weather Summary

 TemperatureHumidityPressure
High91 °F (Apr 9, 2:30 PM)100% (Apr 17, 8:30 AM)30.09 "Hg (Apr 17, 8:30 AM)
Low66 °F (Apr 12, 4:30 AM)34% (Apr 9, 3:30 PM)29.86 "Hg (Apr 14, 4:30 PM)
Average78 °F69%29.99 "Hg
* Reported Apr 8 6:30 PM — Apr 23 6:30 PM, Barquisimeto, Weather by CustomWeather, © 2014

Note: Actual official high and low records may vary slightly from our data, if they occured in-between our weather recording intervals... More about our weather records

Advertising

Historic Weather Conditions — Data for Previous 24 hours

 ConditionsComfort  
Time TempWeatherWind HumidityBarometerVisibility
6:30 PM
Apr 23
79 °FPassing clouds.9 mph70%29.92 "HgN/A
5:30 PM82 °FPartly sunny.8 mph62%29.92 "HgN/A
4:30 PM82 °FPartly sunny.8 mph62%29.92 "HgN/A
3:30 PM86 °FPartly sunny.14 mph52%29.92 "HgN/A
2:30 PM88 °FPartly sunny.15 mph49%29.95 "HgN/A
1:30 PM84 °FPartly sunny.13 mph58%29.95 "HgN/A
12:30 PM86 °FPartly sunny.17 mph52%29.98 "HgN/A
11:30 AM82 °FPartly sunny.17 mph62%30.01 "HgN/A
10:30 AM82 °FPartly sunny.18 mph62%30.01 "HgN/A
9:30 AM79 °FPartly sunny.15 mph70%29.98 "HgN/A
8:30 AM75 °FFog.10 mph78%29.98 "Hg5 mi
7:30 AM72 °FFog.10 mph94%29.98 "Hg1 mi
6:30 AM72 °FFog.8 mph94%29.98 "Hg4 mi
5:30 AM72 °FFog.9 mph94%29.98 "Hg6 mi
4:30 AM72 °FFog.9 mph94%29.98 "Hg6 mi
1:30 AM75 °FPassing clouds.5 mph83%29.98 "HgN/A
10:30 PM
Apr 22
77 °FPassing clouds.6 mph74%29.98 "HgN/A
9:30 PM79 °FPassing clouds.6 mph70%29.98 "HgN/A
8:30 PM81 °FPassing clouds.7 mph66%29.95 "HgN/A
Weather by CustomWeather, © 2014

See weather overview